Location: El Páramo
(10.0317°N, 66.6967°W)
Time: 23:39:05
(UTC+00:00)

Daily predictions for brighter satellites

Satellite Brightness Start Highest point End
(mag) Time Altitude Azimuth Time Altitude Azimuth Time Altitude Azimuth
CORIOLIS 4.4 22:27:08 10° S 22:32:33 78° WSW 22:37:57 10° NNW
Cosmos 1908 Rocket 4.1 22:30:27 10° SSE 22:34:26 36° E 22:38:23 10° NNE
Spot 1 3.9 22:31:54 10° NNE 22:35:57 88° ESE 22:40:03 10° SSW
Cosmos 1766 3.2 22:33:10 10° S 22:36:59 62° E 22:40:50 10° NNE
Cosmos 1634 Rocket 4.0 22:33:01 10° N 22:39:12 88° E 22:45:28 10° S
ASTEX 1 3.4 22:35:31 10° N 22:40:30 81° E 22:45:29 10° S
Cosmos 2263 Rocket 3.8 22:38:29 10° NE 22:40:55 13° ENE 22:43:21 10° E
Cosmos 2333 Rocket 3.5 22:38:21 10° SE 22:42:15 19° ESE 22:46:07 10° ENE
Atlas 2A Centaur Rocket 4.1 22:37:52 10° SSW 22:42:26 44° SE 23:02:13 10° ENE
USA 290 3.3 22:39:55 10° SSE 22:42:39 25° ESE 22:45:23 10° NE
Ariane H10-3 4.4 22:29:40 10° W 22:43:05 29° SSW 22:46:54 10° SE
DNEPR-1 R/B 3.9 22:40:45 10° SSW 22:44:49 67° WNW 22:49:12 10° NNE
Cosmos 2219 3.2 22:41:29 10° NNW 22:47:14 76° ENE 22:52:56 10° SSE
Okean 2 3.3 22:43:40 10° N 22:47:47 80° E 22:51:52 10° S
YAOGAN 1 4.2 22:45:42 10° ESE 22:48:02 14° ENE 22:50:21 10° NE
Meteor 1-12 Rocket 4.3 22:42:27 10° S 22:48:20 74° E 22:54:19 10° N
Cosmos 2360 Rocket 2.5 22:44:40 10° S 22:49:59 43° ESE 22:55:17 10° NE
SL-14 R/B 4.0 22:46:26 10° NNE 22:50:00 32° E 22:53:37 10° SSE
Lacrosse 4 Rocket 1.7 22:47:44 10° SSW 22:51:42 66° WNW 22:55:42 10° NNE
Okean O Rocket 3.3 22:52:50 12° ENE 22:52:50 12° ENE 22:54:38 10° NE
Atlas Centaur 2 3.9 22:53:42 10° SSE 22:55:59 13° SE 22:58:13 11° ESE
Cosmos 1726 3.8 22:52:44 10° SSW 22:56:06 37° W 22:59:29 10° NNW
SWIFT 2.3 22:52:53 10° WSW 22:57:06 83° NNW 23:00:25 16° ENE
ARGOS 4.4 22:52:03 10° S 22:57:09 46° WSW 23:02:14 10° NNW
Cosmos 968 Rocket 4.4 22:52:33 10° SSW 22:57:40 54° WNW 23:02:47 10° N
H-2A R/B 2.6 22:55:04 10° NW 22:58:17 17° N 22:59:42 12° NE
PSLV R/B 4.1 22:55:33 10° SSE 22:59:03 38° ENE 23:02:29 10° N
IRIDIUM 106 4.2 22:57:36 10° S 23:02:49 79° E 23:08:00 10° N
ARIANE 5 R/B 2.8 23:02:03 10° SW 23:02:54 11° SSW 23:03:40 10° S
Cosmos 2082 3.9 22:57:39 10° N 23:03:09 49° ENE 23:08:36 10° SSE
Cosmos 1470 2.9 23:00:07 10° SSE 23:03:51 47° E 23:07:32 10° NNE
Cosmos 1674 Rocket 3.9 23:00:21 10° NNE 23:04:33 43° E 23:08:46 10° SSE
CZ-4 R/B 4.3 23:01:15 10° SSE 23:05:19 68° ENE 23:09:23 10° N
CZ-3C R/B 3.1 22:58:08 10° WNW 23:05:21 25° NNW 23:07:37 13° NE
Aureole 3 Rocket 3.8 22:59:53 10° N 23:06:24 53° E 23:11:03 10° SSE
ARIANE 5 R/B 3.1 23:04:25 10° SW 23:07:01 24° SSE 23:10:04 16° ESE
Cosmos 2026 Rocket 4.2 23:04:28 10° SSE 23:10:14 45° E 23:15:56 10° NNE
Hubble Space Telescope 2.6 23:08:40 10° NNW 23:11:15 16° NNE 23:12:21 15° NE
Cosmos 540 Rocket 3.4 23:06:17 10° NNW 23:11:22 87° E 23:16:29 10° SSE
ARIANE 5 R/B 3.5 23:11:01 10° SW 23:13:08 21° SSE 23:15:28 16° SE
Meteor 1-15 Rocket 4.5 23:08:18 10° SSW 23:13:54 72° W 23:19:26 10° N
Centaur Rocket 4.4 23:13:29 10° W 23:17:40 62° N 23:25:29 20° ENE
Cosmos 2322 Rocket 3.1 23:13:32 10° SSW 23:19:01 51° WNW 23:24:32 10° N
Cosmos 2333 4.4 23:14:09 10° S 23:19:40 48° ESE 23:25:11 10° NNE
GPS 2-14 Rocket1 2.9 23:16:06 10° WNW 23:19:44 50° NNE 23:20:47 37° ENE
CZ-4B R/B 3.2 23:18:52 10° SSE 23:23:59 52° ENE 23:29:11 10° N
COSMOS 2455 2.8 23:18:16 10° S 23:24:09 59° ESE 23:30:01 10° NNE
Cosmos 1503 Rocket 4.1 23:24:08 10° S 23:29:05 47° ESE 23:31:37 26° NE
Cosmos 1378 Rocket 3.6 23:26:33 10° N 23:30:51 79° W 23:35:08 10° S
Cosmos 2227 Rocket 4.5 23:28:21 10° NW 23:32:55 26° WSW 23:37:30 10° SSW
COBE Rocket 3.8 23:30:10 10° SSE 23:35:11 90° ENE 23:40:03 10° N
Aureole 1 Rocket 4.5 23:28:42 10° S 23:37:00 68° ESE 23:44:22 10° NNE
Cosmos 841 Rocket 3.5 23:33:52 10° NNW 23:38:59 81° WSW 23:44:06 10° S
ARIANE 5 R/B 2.4 23:31:48 10° W 23:41:36 51° S 23:42:10 46° SSE
deb Olympus 4.4 23:29:35 10° WSW 23:42:52 41° S 23:44:19 33° SSE
USA 229 DEB 4.0 23:37:49 10° NNW 23:45:44 87° WSW 23:53:45 10° SSE
USA 229 4.0 23:37:55 10° NNW 23:45:50 88° WSW 23:53:51 10° SSE
Cosmos 2285 Rocket 4.3 23:41:35 10° N 23:47:03 43° ENE 23:47:03 43° ENE
Cosmos 2322 3.9 23:43:10 10° S 23:48:01 49° SE 23:48:01 49° SE
Fermi 4.3 23:50:12 10° WNW 23:53:53 55° SW 23:53:53 55° SW
Landsat 5 4.2 23:50:58 10° N 23:55:14 53° WNW 23:59:20 10° SSW
